Time,TemperatureF,DewpointF,PressureIn,WindDirection,WindDirectionDegrees,WindSpeedMPH,WindSpeedGustMPH,Humidity,HourlyPrecipIn,Conditions,Clouds,dailyrainin,SolarRadiationWatts/m^2,SoftwareType,DateUTC
2013-01-09 00:02:00,39.0,32.0,-100.00,SSW,205,15.0,29.0,75,0.00,,,0.01,1.000000,,2013-01-09 08:02:00,
2013-01-09 00:12:00,39.0,32.0,-100.00,SSW,205,15.0,29.0,75,0.00,,,0.01,1.000000,,2013-01-09 08:12:00,
2013-01-09 00:22:00,39.0,32.0,-100.00,SSW,205,15.0,29.0,75,0.00,,,0.01,1.000000,,2013-01-09 08:22:00,
2013-01-09 00:43:00,39.0,31.0,-100.00,SSW,208,17.0,32.0,74,0.00,,,0.01,1.000000,,2013-01-09 08:43:00,
2013-01-09 00:53:00,39.0,31.0,-100.00,SSW,208,17.0,32.0,74,0.00,,,0.01,1.000000,,2013-01-09 08:53:00,
2013-01-09 01:02:00,39.0,31.0,-100.00,SSW,208,17.0,32.0,74,0.00,,,0.01,1.000000,,2013-01-09 09:02:00,
2013-01-09 01:12:00,39.0,31.0,-100.00,SSW,208,17.0,32.0,74,0.00,,,0.01,1.000000,,2013-01-09 09:12:00,
2013-01-09 01:22:00,39.0,31.0,-100.00,SSW,208,17.0,32.0,74,0.00,,,0.01,1.000000,,2013-01-09 09:22:00,
2013-01-09 01:53:00,38.0,30.0,-100.00,SSW,208,14.0,28.0,74,0.00,,,0.01,1.000000,,2013-01-09 09:53:00,
2013-01-09 02:02:00,38.0,30.0,-100.00,SSW,208,14.0,28.0,74,0.00,,,0.01,1.000000,,2013-01-09 10:02:00,
2013-01-09 02:11:00,38.0,30.0,-100.00,SSW,208,14.0,28.0,74,0.00,,,0.01,1.000000,,2013-01-09 10:11:00,
2013-01-09 02:22:00,38.0,30.0,-100.00,SSW,208,14.0,28.0,74,0.00,,,0.01,1.000000,,2013-01-09 10:22:00,
2013-01-09 02:52:00,40.0,30.0,-100.00,SSW,206,14.0,27.0,66,0.00,,,0.01,1.000000,,2013-01-09 10:52:00,
2013-01-09 03:02:00,40.0,30.0,-100.00,SSW,206,14.0,27.0,66,0.00,,,0.01,1.000000,,2013-01-09 11:02:00,
2013-01-09 03:11:00,40.0,30.0,-100.00,SSW,206,14.0,27.0,66,0.00,,,0.01,1.000000,,2013-01-09 11:11:00,
2013-01-09 03:22:00,40.0,30.0,-100.00,SSW,206,14.0,27.0,66,0.00,,,0.01,1.000000,,2013-01-09 11:22:00,
2013-01-09 03:53:00,41.0,30.0,-100.00,SSW,207,11.0,24.0,65,0.00,,,0.01,1.000000,,2013-01-09 11:53:00,
2013-01-09 04:03:00,41.0,30.0,-100.00,SSW,207,11.0,24.0,65,0.00,,,0.01,1.000000,,2013-01-09 12:03:00,
2013-01-09 04:12:00,41.0,30.0,-100.00,SSW,207,11.0,24.0,65,0.00,,,0.01,1.000000,,2013-01-09 12:12:00,
2013-01-09 04:22:00,41.0,30.0,-100.00,SSW,207,11.0,24.0,65,0.00,,,0.01,1.000000,,2013-01-09 12:22:00,
2013-01-09 04:53:00,37.0,30.0,-100.00,SSW,213,9.0,18.0,76,0.00,,,0.01,1.000000,,2013-01-09 12:53:00,
2013-01-09 05:02:00,37.0,30.0,-100.00,SSW,213,9.0,18.0,76,0.00,,,0.01,1.000000,,2013-01-09 13:02:00,
2013-01-09 05:12:00,37.0,30.0,-100.00,SSW,213,9.0,18.0,76,0.00,,,0.01,1.000000,,2013-01-09 13:12:00,
2013-01-09 05:22:00,37.0,30.0,-100.00,SSW,213,9.0,18.0,76,0.00,,,0.01,1.000000,,2013-01-09 13:22:00,
2013-01-09 05:43:00,39.0,29.0,-100.00,SW,219,16.0,28.0,66,0.00,,,0.01,1.000000,,2013-01-09 13:43:00,
2013-01-09 05:53:00,39.0,29.0,-100.00,SW,219,16.0,28.0,66,0.00,,,0.01,1.000000,,2013-01-09 13:53:00,
2013-01-09 06:02:00,39.0,29.0,-100.00,SW,219,16.0,28.0,66,0.00,,,0.01,1.000000,,2013-01-09 14:02:00,
2013-01-09 06:12:00,39.0,29.0,-100.00,SW,219,16.0,28.0,66,0.00,,,0.01,1.000000,,2013-01-09 14:12:00,
2013-01-09 06:22:00,39.0,29.0,-100.00,SW,219,16.0,28.0,66,0.00,,,0.01,1.000000,,2013-01-09 14:22:00,
2013-01-09 06:53:00,39.0,29.0,-100.00,SSW,207,12.0,29.0,68,0.00,,,0.01,1.000000,,2013-01-09 14:53:00,
2013-01-09 07:03:00,39.0,29.0,-100.00,SSW,207,12.0,29.0,68,0.00,,,0.01,1.000000,,2013-01-09 15:03:00,
2013-01-09 07:12:00,39.0,29.0,-100.00,SSW,207,12.0,29.0,68,0.00,,,0.01,1.000000,,2013-01-09 15:12:00,
2013-01-09 07:22:00,39.0,29.0,-100.00,SSW,207,12.0,29.0,68,0.00,,,0.01,1.000000,,2013-01-09 15:22:00,
2013-01-09 07:53:00,39.0,30.0,-100.00,SSW,201,13.0,34.0,69,0.00,,,0.01,1.000000,,2013-01-09 15:53:00,
2013-01-09 08:03:00,39.0,30.0,-100.00,SSW,201,13.0,34.0,69,0.00,,,0.01,1.000000,,2013-01-09 16:03:00,
2013-01-09 08:12:00,39.0,30.0,-100.00,SSW,201,13.0,34.0,69,0.00,,,0.01,1.000000,,2013-01-09 16:12:00,
2013-01-09 08:22:00,39.0,30.0,-100.00,SSW,201,13.0,34.0,69,0.00,,,0.01,1.000000,,2013-01-09 16:22:00,
2013-01-09 08:43:00,38.0,30.0,-100.00,SSW,209,12.0,28.0,73,0.00,,,0.01,5.000000,,2013-01-09 16:43:00,
2013-01-09 08:53:00,38.0,30.0,-100.00,SSW,209,12.0,28.0,73,0.00,,,0.01,5.000000,,2013-01-09 16:53:00,
2013-01-09 09:02:00,38.0,30.0,-100.00,SSW,209,12.0,28.0,73,0.00,,,0.01,5.000000,,2013-01-09 17:02:00,
2013-01-09 09:12:00,38.0,30.0,-100.00,SSW,209,12.0,28.0,73,0.00,,,0.01,5.000000,,2013-01-09 17:12:00,
2013-01-09 09:22:00,38.0,30.0,-100.00,SSW,209,12.0,28.0,73,0.00,,,0.01,5.000000,,2013-01-09 17:22:00,
2013-01-09 09:43:00,39.0,30.0,-100.00,SSW,206,13.0,29.0,71,0.00,,,0.00,29.000000,,2013-01-09 17:43:00,
2013-01-09 09:53:00,39.0,30.0,-100.00,SSW,206,13.0,29.0,71,0.00,,,0.00,29.000000,,2013-01-09 17:53:00,
2013-01-09 10:03:00,39.0,30.0,-100.00,SSW,206,13.0,29.0,71,0.00,,,0.00,29.000000,,2013-01-09 18:03:00,
2013-01-09 10:12:00,39.0,30.0,-100.00,SSW,206,13.0,29.0,71,0.00,,,0.00,29.000000,,2013-01-09 18:12:00,
2013-01-09 10:23:00,39.0,30.0,-100.00,SSW,206,13.0,29.0,71,0.00,,,0.00,29.000000,,2013-01-09 18:23:00,
2013-01-09 10:53:00,36.0,30.0,-100.00,SW,220,17.0,31.0,80,0.00,,,0.00,42.000000,,2013-01-09 18:53:00,
2013-01-09 11:02:00,36.0,30.0,-100.00,SW,220,17.0,31.0,80,0.00,,,0.00,42.000000,,2013-01-09 19:02:00,
2013-01-09 11:12:00,36.0,30.0,-100.00,SW,220,17.0,31.0,80,0.00,,,0.00,42.000000,,2013-01-09 19:12:00,
2013-01-09 11:22:00,36.0,30.0,-100.00,SW,220,17.0,31.0,80,0.00,,,0.00,42.000000,,2013-01-09 19:22:00,
2013-01-09 11:53:00,32.0,31.0,-100.00,SW,231,7.0,24.0,97,0.02,,,0.02,52.000000,,2013-01-09 19:53:00,
2013-01-09 12:02:00,32.0,31.0,-100.00,SW,231,7.0,24.0,97,0.02,,,0.02,52.000000,,2013-01-09 20:02:00,
2013-01-09 12:12:00,32.0,31.0,-100.00,SW,231,7.0,24.0,97,0.02,,,0.02,52.000000,,2013-01-09 20:12:00,
2013-01-09 12:22:00,32.0,31.0,-100.00,SW,231,7.0,24.0,97,0.02,,,0.02,52.000000,,2013-01-09 20:22:00,
2013-01-09 12:43:00,32.0,29.0,-100.00,SW,221,11.0,22.0,87,0.00,,,0.02,88.000000,,2013-01-09 20:43:00,
2013-01-09 12:53:00,32.0,29.0,-100.00,SW,221,11.0,22.0,87,0.00,,,0.02,88.000000,,2013-01-09 20:53:00,
2013-01-09 13:03:00,32.0,29.0,-100.00,SW,221,11.0,22.0,87,0.00,,,0.02,88.000000,,2013-01-09 21:03:00,
2013-01-09 13:12:00,32.0,29.0,-100.00,SW,221,11.0,22.0,87,0.00,,,0.02,88.000000,,2013-01-09 21:12:00,
2013-01-09 13:22:00,32.0,29.0,-100.00,SW,221,11.0,22.0,87,0.00,,,0.02,88.000000,,2013-01-09 21:22:00,
2013-01-09 13:53:00,31.0,27.0,-100.00,SW,228,9.0,23.0,86,0.00,,,0.02,94.000000,,2013-01-09 21:53:00,
2013-01-09 14:03:00,31.0,27.0,-100.00,SW,228,9.0,23.0,86,0.00,,,0.02,94.000000,,2013-01-09 22:03:00,
2013-01-09 14:12:00,31.0,27.0,-100.00,SW,228,9.0,23.0,86,0.00,,,0.02,94.000000,,2013-01-09 22:12:00,
2013-01-09 14:22:00,31.0,27.0,-100.00,SW,228,9.0,23.0,86,0.00,,,0.02,94.000000,,2013-01-09 22:22:00,
2013-01-09 14:43:00,31.0,27.0,-100.00,SW,222,7.0,15.0,85,0.00,,,0.02,91.000000,,2013-01-09 22:43:00,
2013-01-09 14:52:00,31.0,27.0,-100.00,SW,222,7.0,15.0,85,0.00,,,0.02,91.000000,,2013-01-09 22:52:00,
2013-01-09 15:02:00,31.0,27.0,-100.00,SW,222,7.0,15.0,85,0.00,,,0.02,91.000000,,2013-01-09 23:02:00,
2013-01-09 15:12:00,31.0,27.0,-100.00,SW,222,7.0,15.0,85,0.00,,,0.02,91.000000,,2013-01-09 23:12:00,
2013-01-09 15:22:00,31.0,27.0,-100.00,SW,222,7.0,15.0,85,0.00,,,0.02,91.000000,,2013-01-09 23:22:00,
2013-01-09 15:43:00,30.0,25.0,-100.00,SW,222,8.0,14.0,83,0.00,,,0.02,74.000000,,2013-01-09 23:43:00,
2013-01-09 15:53:00,30.0,25.0,-100.00,SW,222,8.0,14.0,83,0.00,,,0.02,74.000000,,2013-01-09 23:53:00,
2013-01-09 16:02:00,30.0,25.0,-100.00,SW,222,8.0,14.0,83,0.00,,,0.02,74.000000,,2013-01-10 00:02:00,
2013-01-09 16:12:00,30.0,25.0,-100.00,SW,222,8.0,14.0,83,0.00,,,0.02,74.000000,,2013-01-10 00:12:00,
2013-01-09 16:22:00,30.0,25.0,-100.00,SW,222,8.0,14.0,83,0.00,,,0.02,74.000000,,2013-01-10 00:22:00,
2013-01-09 16:43:00,29.0,25.0,-100.00,WSW,244,4.0,11.0,83,0.00,,,0.02,30.000000,,2013-01-10 00:43:00,
2013-01-09 16:53:00,29.0,25.0,-100.00,WSW,244,4.0,11.0,83,0.00,,,0.02,30.000000,,2013-01-10 00:53:00,
2013-01-09 17:02:00,29.0,25.0,-100.00,WSW,244,4.0,11.0,83,0.00,,,0.02,30.000000,,2013-01-10 01:02:00,
2013-01-09 17:12:00,29.0,25.0,-100.00,WSW,244,4.0,11.0,83,0.00,,,0.02,30.000000,,2013-01-10 01:12:00,
2013-01-09 17:22:00,29.0,25.0,-100.00,WSW,244,4.0,11.0,83,0.00,,,0.02,30.000000,,2013-01-10 01:22:00,
2013-01-09 17:53:00,27.0,20.0,-100.00,SW,234,7.0,13.0,76,0.00,,,0.02,3.000000,,2013-01-10 01:53:00,
2013-01-09 18:02:00,27.0,20.0,-100.00,SW,234,7.0,13.0,76,0.00,,,0.02,3.000000,,2013-01-10 02:02:00,
2013-01-09 18:12:00,27.0,20.0,-100.00,SW,234,7.0,13.0,76,0.00,,,0.02,3.000000,,2013-01-10 02:12:00,
2013-01-09 18:22:00,27.0,20.0,-100.00,SW,234,7.0,13.0,76,0.00,,,0.02,3.000000,,2013-01-10 02:22:00,
2013-01-09 19:02:00,26.0,20.0,-100.00,SW,234,4.0,10.0,77,0.00,,,0.02,1.000000,,2013-01-10 03:02:00,
2013-01-09 19:12:00,26.0,20.0,-100.00,SW,234,4.0,10.0,77,0.00,,,0.02,1.000000,,2013-01-10 03:12:00,
2013-01-09 19:22:00,26.0,20.0,-100.00,SW,234,4.0,10.0,77,0.00,,,0.02,1.000000,,2013-01-10 03:22:00,
2013-01-09 19:52:00,25.0,17.0,-100.00,SW,229,5.0,8.0,71,0.00,,,0.02,1.000000,,2013-01-10 03:52:00,
2013-01-09 20:02:00,25.0,17.0,-100.00,SW,229,5.0,8.0,71,0.00,,,0.02,1.000000,,2013-01-10 04:02:00,
2013-01-09 20:12:00,25.0,17.0,-100.00,SW,229,5.0,8.0,71,0.00,,,0.02,1.000000,,2013-01-10 04:12:00,
2013-01-09 20:22:00,25.0,17.0,-100.00,SW,229,5.0,8.0,71,0.00,,,0.02,1.000000,,2013-01-10 04:22:00,
2013-01-09 20:52:00,24.0,17.0,-100.00,SW,219,5.0,10.0,73,0.00,,,0.02,1.000000,,2013-01-10 04:52:00,
2013-01-09 21:03:00,24.0,17.0,-100.00,SW,219,5.0,10.0,73,0.00,,,0.02,1.000000,,2013-01-10 05:03:00,
2013-01-09 21:12:00,24.0,17.0,-100.00,SW,219,5.0,10.0,73,0.00,,,0.02,1.000000,,2013-01-10 05:12:00,
2013-01-09 21:22:00,24.0,17.0,-100.00,SW,219,5.0,10.0,73,0.00,,,0.02,1.000000,,2013-01-10 05:22:00,
2013-01-09 21:43:00,23.0,17.0,-100.00,SSW,206,5.0,11.0,79,0.00,,,0.02,1.000000,,2013-01-10 05:43:00,
2013-01-09 21:53:00,23.0,17.0,-100.00,SSW,206,5.0,11.0,79,0.00,,,0.02,1.000000,,2013-01-10 05:53:00,
2013-01-09 22:02:00,23.0,17.0,-100.00,SSW,206,5.0,11.0,79,0.00,,,0.02,1.000000,,2013-01-10 06:02:00,
2013-01-09 22:11:00,23.0,17.0,-100.00,SSW,206,5.0,11.0,79,0.00,,,0.02,1.000000,,2013-01-10 06:11:00,
2013-01-09 22:22:00,23.0,17.0,-100.00,SSW,206,5.0,11.0,79,0.00,,,0.02,1.000000,,2013-01-10 06:22:00,
2013-01-09 22:52:00,22.0,17.0,-100.00,SSW,211,5.0,8.0,82,0.00,,,0.02,1.000000,,2013-01-10 06:52:00,
2013-01-09 23:02:00,22.0,17.0,-100.00,SSW,211,5.0,8.0,82,0.00,,,0.02,1.000000,,2013-01-10 07:02:00,
2013-01-09 23:12:00,22.0,17.0,-100.00,SSW,211,5.0,8.0,82,0.00,,,0.02,1.000000,,2013-01-10 07:12:00,
2013-01-09 23:22:00,22.0,17.0,-100.00,SSW,211,5.0,8.0,82,0.00,,,0.02,1.000000,,2013-01-10 07:22:00,
2013-01-09 23:52:00,22.0,17.0,-100.00,SW,214,7.0,11.0,82,0.00,,,0.02,1.000000,,2013-01-10 07:52:00,